x

8454049 - Quonset Point, Ri (qptr1) Weather Station

12:30 - Thu 31st Jul 2014 All times are EDT. -4 hours from GMT.

  • Wind
    6mph, 8mph gusts
  • Sea Temp 73°f
  • Ar Temp 66°f
  • Sea Pressure 1017.7mb
  • 8454049 - Quonset Point, Ri
  • 8454049 - Quonset Point, Ri

More Historic Weather Station data

Upgrade to MSW Pro to gain access to the past 30 days of data for over 8000 Wavebouys and Weather Stations around the globe.

Join Pro

Comparision Forecast

View Surf forecast
   
Qui 07/31 12:30 6 8 mph 1017.7mb 73f 66f
12:24 6 7 mph 1017.7mb 73f 66f
12:18 6 7 mph 1017.7mb 73f 66f
12:12 6 7 mph 1017.7mb 73f 66f
12:06 6 8 mph 1017.7mb 73f 66f
12:00 6 7 mph 1017.8mb 73f 66f
Qua 07/30 11:54 6 8 mph 1017.7mb 73f 66f
11:48 6 7 mph 1017.7mb 73f 66f
11:42 7 8 mph 1017.7mb 73f 66f
11:36 8 9 mph 1017.7mb 73f 67f
11:30 8 9 mph 1017.6mb 74f 66f
11:24 8 9 mph 1017.6mb 74f 66f
11:18 8 10 mph 1017.6mb 74f 67f
11:12 10
mph
1017.7mb 74f 67f
11:06 9 11 mph 1017.7mb 74f 67f
11:00 9 13 mph 1017.6mb 74f 67f
10:54 9 10 mph 1017.5mb 74f 67f
10:48 9 11 mph 1017.5mb 74f 67f
10:42 9 10 mph 1017.5mb 74f 67f
10:36 10 11 mph 1017.5mb 74f 67f
10:30 10 11 mph 1017.5mb 74f 67f
10:24 10 13 mph 1017.5mb 74f 68f
10:18 9 11 mph 1017.5mb 74f 68f
10:12 9 13 mph 1017.5mb 74f 68f
10:06 9 10 mph 1017.5mb 74f 68f
10:00 9 11 mph 1017.5mb 74f 68f
9:54 9 10 mph 1017.5mb 74f 68f
9:48 9 10 mph 1017.4mb 74f 68f
9:42 8 9 mph 1017.4mb 74f 68f
9:36 9 11 mph 1017.4mb 74f 68f
9:30 9 10 mph 1017.4mb 74f 68f
9:24 9 11 mph 1017.3mb 74f 68f
9:18 8 10 mph 1017.3mb 74f 68f
9:12 9 10 mph 1017.2mb 74f 68f
9:06 8 10 mph 1017.1mb 74f 69f
9:00 8 10 mph 1017mb 74f 69f
8:54 9 10 mph 1017mb 74f 69f
8:48 9 10 mph 1016.9mb 74f 69f
8:42 10 11 mph 1016.9mb 74f 69f
8:36 9 10 mph 1016.9mb 74f 69f
8:30 9 11 mph 1016.8mb 74f 69f
8:24 9 10 mph 1016.8mb 74f 70f
8:18 10 11 mph 1016.8mb 74f 70f
8:12 10 11 mph 1016.8mb 74f 70f
8:06 11 13 mph 1016.8mb 74f 70f
8:00 11 13 mph 1016.7mb 74f 71f
7:54 11 13 mph 1016.6mb 74f 71f
7:48 11 14 mph 1016.5mb 74f 71f
7:42 13 14 mph 1016.5mb 74f 71f
7:36 11 14 mph 1016.4mb 74f 71f
7:30 11 15 mph 1016.4mb 74f 72f
7:24 13 14 mph 1016.3mb 74f 72f
7:18 11 13 mph 1016.3mb 74f 72f
7:12 11 14 mph 1016.4mb 74f 72f
7:06 11 15 mph 1016.3mb 74f 73f
7:00 13 14 mph 1016.3mb 74f 73f
6:54 13 14 mph 1016.3mb 74f 73f
6:48 11 15 mph 1016.2mb 74f 73f
6:42 11 14 mph 1016.1mb 74f 73f
6:36 13 17 mph 1016mb 74f 73f
6:30 14 16 mph 1016mb 74f 73f
6:24 15 16 mph 1016mb 74f 74f
6:18 14 16 mph 1015.9mb 74f 74f
6:12 14 15 mph 1015.9mb 74f 74f
6:06 14 16 mph 1015.7mb 74f 74f
6:00 14 16 mph 1015.7mb 74f 74f
5:54 14 16 mph 1015.7mb 74f 74f
5:48 15 17 mph 1015.7mb 74f 74f
5:42 15 17 mph 1015.7mb 74f 74f
5:36 15 20 mph 1015.7mb 74f 74f
5:30 15 17 mph 1015.7mb 74f 74f
5:24 15 17 mph 1015.6mb 74f 74f
5:18 14 16 mph 1015.6mb 74f 75f
5:12 13 16 mph 1015.6mb 74f 75f
5:06 14 16 mph 1015.6mb 74f 75f
5:00 14 18 mph 1015.6mb 74f 75f
4:54 16 18 mph 1015.5mb 74f 75f
4:48 16 18 mph 1015.6mb 74f 75f
4:42 16 18 mph 1015.5mb 74f 75f
4:36 17 18 mph 1015.5mb 74f 75f
4:30 16 21 mph 1015.5mb 74f 75f
4:24 14 20 mph 1015.4mb 74f 75f
4:18 16 21 mph 1015.3mb 74f 75f
4:12 15 17 mph 1015.3mb 74f 75f
4:06 14 17 mph 1015.4mb 74f 75f
4:00 16 17 mph 1015.4mb 74f 75f
3:54 13 17 mph 1015.4mb 74f 75f
3:48 17 18 mph 1015.3mb 74f 75f
3:42 14 20 mph 1015.3mb 74f 74f
3:36 16 20 mph 1015.3mb 74f 74f
3:30 16 18 mph 1015.3mb 74f 74f
3:24 16 20 mph 1015.3mb 74f 74f
3:18 16 18 mph 1015.3mb 74f 73f
3:12 16 17 mph 1015.3mb 74f 73f
3:06 14 18 mph 1015.3mb 74f 73f
3:00 16 18 mph 1015.4mb 74f 73f
2:54 16 17 mph 1015.4mb 74f 73f
2:48 16 18 mph 1015.4mb 74f 73f
2:42 16 18 mph 1015.4mb 73f 72f
2:36 16 18 mph 1015.4mb 73f 72f
2:30 17 18 mph 1015.4mb 73f 72f
2:24 17 20 mph 1015.4mb 73f 72f
2:18 16 18 mph 1015.5mb 73f 72f
2:12 17 18 mph 1015.5mb 73f 72f
2:06 16 18 mph 1015.4mb 73f 72f
2:00 18 20 mph 1015.5mb 73f 72f
1:54 17 18 mph 1015.4mb 72f 72f
1:48 17 18 mph 1015.4mb 72f 72f
1:42 16 17 mph 1015.4mb 72f 72f
1:36 17 18 mph 1015.4mb 71f 72f
1:30 16 18 mph 1015.5mb 71f 72f
1:24 15 17 mph 1015.5mb 71f 72f
1:18 15 17 mph 1015.5mb 71f 72f
1:12 14 15 mph 1015.6mb 71f 72f
1:06 15 16 mph 1015.7mb 71f 72f
1:00 13 15 mph 1015.7mb 71f 72f
12:54 15 17 mph 1015.7mb 71f 72f
12:48 16 17 mph 1015.7mb 71f 72f
12:42 11 15 mph 1015.8mb 71f 73f
12:36 14 15 mph 1015.8mb 71f 73f
12:30 11 15 mph 1015.8mb 71f 73f
12:24 11 14 mph 1015.8mb 71f 73f
12:18 10 11 mph 1015.8mb 71f 74f
12:12 9 10 mph 1015.8mb 71f 73f
12:06 9 10 mph 1015.9mb 71f 73f
12:00 9 10 mph 1015.9mb 72f 73f
11:54 8 11 mph 1016mb 72f 73f
11:48 10 11 mph 1015.9mb 72f 73f
11:42 6 8 mph 1016mb 73f 74f
11:36 8 9 mph 1016.1mb 73f 74f
11:30 7 10 mph 1016.1mb 73f 75f
11:24 7 9 mph 1016mb 73f 74f
11:18 7
mph
1015.9mb 73f 73f
11:12 5 6 mph 1016mb 73f 74f
11:06 5 6 mph 1016mb 73f 75f
11:00 5 6 mph 1016mb 73f 74f
10:54 5 7 mph 1016mb 73f 74f
10:48 6 7 mph 1016mb 73f 73f
10:42 3 5 mph 1016mb 73f 74f
10:36 2 3 mph 1015.9mb 73f 76f
10:30 1 2 mph 1015.9mb 73f 76f
10:24 1 2 mph 1016mb 73f 74f
10:18  -  1 mph 1016mb 73f 73f
10:12  -  1 mph 1016.1mb 73f 73f
10:06  -  1 mph 1016.1mb 73f 73f
10:00  -  1 mph 1016.1mb 73f 73f
9:54 1 2 mph 1016.1mb 73f 73f
9:48 1 2 mph 1016mb 73f 75f
9:42 1 2 mph 1016mb 73f 74f
9:36  -  1 mph 1016mb 73f 74f
9:30  -  1 mph 1016mb 73f 73f
9:24 1 2 mph 1016mb 73f 70f
9:18 2 3 mph 1016mb 73f 69f
9:12 2 3 mph 1016mb 73f 69f
9:06 3 5 mph 1016.1mb 73f 69f
9:00 2 3 mph 1016mb 72f 69f
8:54 2
mph
1016mb 72f 69f
8:48  -  2 mph 1016mb 72f 70f
8:42  -  1 mph 1016mb 72f 71f
8:36  -  1 mph 1016mb 72f 72f
8:30  -  2 mph 1016mb 72f 71f
8:24 2
mph
1016mb 73f 70f
8:18 2 3 mph 1016mb 73f 69f
8:12 3 5 mph 1016mb 73f 69f
8:06 3 6 mph 1016mb 73f 69f
8:00 2 3 mph 1016mb 73f 70f
7:54 2 3 mph 1015.9mb 73f 68f
7:48 3
mph
1015.9mb 73f 67f
7:42 2 3 mph 1015.9mb 73f 67f
7:36 2 3 mph 1015.9mb 73f 66f
7:30 3 5 mph 1015.9mb 73f 66f
7:24 3 6 mph 1015.8mb 73f 65f
7:18 6 7 mph 1015.7mb 73f 65f
7:12 6
mph
1015.7mb 72f 64f
7:06 3 5 mph 1015.8mb 72f 64f
7:00 3 5 mph 1015.7mb 72f 64f
6:54 3 5 mph 1015.6mb 72f 64f
6:48 2 3 mph 1015.6mb 72f 65f
6:42 2 5 mph 1015.6mb 72f 65f
6:36 2 3 mph 1015.6mb 72f 64f
6:30 2 3 mph 1015.6mb 72f 64f
6:24 3 5 mph 1015.6mb 72f 64f
6:18 3 5 mph 1015.5mb 72f 63f
6:12 2 3 mph 1015.4mb 72f 63f
6:06 3 5 mph 1015.4mb 72f 63f
6:00 3 5 mph 1015.2mb 73f 63f
5:54 3 5 mph 1015.2mb 72f 62f
5:48 3
mph
1015.1mb 72f 62f
5:42 3 5 mph 1015mb 72f 62f
5:36 2 3 mph 1015mb 72f 63f
5:30 2 5 mph 1014.9mb 72f 63f
5:24 2 3 mph 1014.8mb 72f 63f
5:18 3
mph
1014.8mb 72f 63f
5:12 3 5 mph 1014.8mb 72f 63f
5:06 3 5 mph 1014.7mb 72f 63f
5:00 2
mph
1014.7mb 72f 63f
4:54 2 3 mph 1014.6mb 72f 63f
4:48 2 5 mph 1014.5mb 72f 63f
4:42 3 5 mph 1014.4mb 73f 63f
4:36 3 5 mph 1014.4mb 73f 63f
4:30 3 5 mph 1014.3mb 73f 63f
4:24 5 6 mph 1014.2mb 73f 63f
4:18 5 6 mph 1014.2mb 73f 63f
4:12 3 5 mph 1014.2mb 73f 63f
4:06 2 3 mph 1014.2mb 73f 64f
4:00 3 5 mph 1014.2mb 73f 64f
3:54 3 5 mph 1014.1mb 73f 63f
3:48 3
mph
1014.3mb 73f 63f
3:42 2 3 mph 1014.3mb 73f 63f
3:36 3 5 mph 1014.2mb 73f 63f
3:30 3 5 mph 1014.2mb 73f 63f
3:24 3 7 mph 1014.2mb 73f 64f
3:18 6 7 mph 1014.1mb 73f 63f
3:12 6 7 mph 1014.1mb 73f 64f
3:06 6 7 mph 1014mb 73f 64f
3:00 5 6 mph 1014mb 73f 64f
2:54 3 5 mph 1013.9mb 72f 65f
2:48 2 5 mph 1013.9mb 72f 65f
2:42 5 6 mph 1014mb 72f 65f
2:36 6
mph
1014.1mb 71f 65f
2:30 5 7 mph 1014.1mb 71f 65f
2:24 6 7 mph 1014.2mb 71f 65f
2:18 2 6 mph 1014.2mb 71f 64f
2:12 5 6 mph 1014.3mb 71f 65f
2:06 6
mph
1014.4mb 71f 65f
2:00 6 8 mph 1014.4mb 71f 64f
1:54 7 9 mph 1014.4mb 71f 65f
1:48 6 7 mph 1014.4mb 71f 65f
1:42 5 6 mph 1014.5mb 72f 65f
1:36 5 7 mph 1014.6mb 72f 65f
1:30 6 7 mph 1014.6mb 72f 65f
1:24 6
mph
1014.6mb 72f 65f
1:18 5 7 mph 1014.6mb 72f 65f
1:12 6 7 mph 1014.6mb 72f 65f
1:06 6 7 mph 1014.6mb 72f 65f
1:00 5 7 mph 1014.6mb 72f 65f
12:54 6 7 mph 1014.6mb 72f 65f
12:48 7 8 mph 1014.5mb 71f 65f
12:42 6 7 mph 1014.5mb 71f 65f
12:36 6 8 mph 1014.5mb 71f 65f
12:30 7 9 mph 1014.5mb 71f 65f
12:24 8 9 mph 1014.5mb 71f 65f
12:18 8 9 mph 1014.5mb 71f 65f
12:12 8 9 mph 1014.5mb 72f 65f
12:06 8 9 mph 1014.5mb 72f 65f
12:00 8 9 mph 1014.4mb 72f 65f
Ter 07/29 11:54 9 10 mph 1014.3mb 72f 65f
11:48 8 9 mph 1014.2mb 72f 65f
11:42 8 9 mph 1014.2mb 72f 65f
11:36 8 9 mph 1014.2mb 72f 66f
11:30 8 9 mph 1014.1mb 72f 66f
11:24 7 8 mph 1014mb 72f 66f
11:18 7 8 mph 1014mb 72f 66f
11:12 6 8 mph 1014mb 72f 66f
11:06 6 7 mph 1013.9mb 72f 66f
11:00 6 7 mph 1013.9mb 72f 66f
10:54 5 7 mph 1013.9mb 72f 67f
10:48 5 6 mph 1013.8mb 73f 67f
10:42 5 6 mph 1013.8mb 73f 67f
10:36 6 8 mph 1013.7mb 73f 67f
10:30 6 8 mph 1013.7mb 73f 67f
10:24 7 9 mph 1013.6mb 73f 67f
10:18 6 8 mph 1013.6mb 73f 67f
10:12 6 7 mph 1013.6mb 73f 67f
10:06 7 8 mph 1013.6mb 73f 67f
10:00 7 8 mph 1013.6mb 73f 67f
9:54 7 8 mph 1013.6mb 73f 67f
9:48 7 8 mph 1013.6mb 74f 68f
9:42 7 8 mph 1013.5mb 74f 68f
9:36 7 9 mph 1013.5mb 74f 68f
9:30 7 8 mph 1013.5mb 74f 68f
9:24 7 8 mph 1013.4mb 74f 68f
9:18 6 8 mph 1013.4mb 74f 69f
9:12 6 7 mph 1013.3mb 74f 69f
9:06 6 7 mph 1013.2mb 74f 69f
9:00 6 7 mph 1013.1mb 74f 69f
8:54 6 8 mph 1013.1mb 74f 69f
8:48 6 7 mph 1013.1mb 74f 70f
8:42 6
mph
1013mb 74f 70f
8:36 5 7 mph 1012.9mb 74f 70f
8:30 6 7 mph 1012.9mb 74f 70f
8:24 7
mph
1012.9mb 74f 70f
8:18 6 8 mph 1013mb 74f 70f
8:12 7 8 mph 1013mb 74f 71f
8:06 7 8 mph 1013mb 74f 71f
8:00 7 8 mph 1012.9mb 74f 71f
7:54 7 9 mph 1012.9mb 74f 71f
7:48 7 9 mph 1012.8mb 74f 71f
7:42 8 9 mph 1012.8mb 74f 71f
7:36 8 11 mph 1012.8mb 74f 71f
7:30 8 10 mph 1012.8mb 74f 72f
7:24 9 10 mph 1012.8mb 74f 72f
7:18 9 10 mph 1012.7mb 74f 72f
7:12 10 13 mph 1012.6mb 75f 72f
7:06 11 14 mph 1012.6mb 75f 72f
7:00 11 14 mph 1012.6mb 75f 73f
6:54 10 11 mph 1012.5mb 75f 73f
6:48 10 11 mph 1012.4mb 75f 73f
6:42 9 13 mph 1012.3mb 75f 73f
6:36 10 14 mph 1012.2mb 75f 73f
6:30 14 15 mph 1012.1mb 75f 73f
6:24 14 16 mph 1012mb 75f 73f
6:18 14 17 mph 1011.9mb 75f 73f
6:12 15 18 mph 1011.9mb 75f 74f
6:06 11 15 mph 1011.8mb 75f 74f
6:00 15 17 mph 1011.6mb 75f 74f
5:54 10 11 mph 1011.6mb 75f 73f
5:48 10 15 mph 1011.5mb 75f 74f
5:42 13 16 mph 1011.5mb 75f 73f
5:36 14 16 mph 1011.4mb 75f 73f
5:30 14 17 mph 1011.4mb 75f 74f
5:24 16 18 mph 1011.3mb 75f 74f
5:18 16 18 mph 1011.2mb 75f 74f
5:12 15 18 mph 1011.2mb 75f 75f
5:06 8 9 mph 1011.2mb 75f 76f
5:00 7 9 mph 1011.2mb 74f 75f
4:54 8 10 mph 1011.1mb 74f 76f
4:48 8 9 mph 1011.1mb 74f 76f
4:42 7 13 mph 1011mb 74f 77f
4:36 8 11 mph 1011mb 74f 76f
4:30 8 13 mph 1010.8mb 74f 76f
4:24 9 13 mph 1010.8mb 74f 76f
4:18 10 14 mph 1010.7mb 74f 77f
4:12 9 11 mph 1010.7mb 74f 76f
4:06 9 10 mph 1010.5mb 74f 76f
4:00 8 9 mph 1010.5mb 74f 76f
3:54 6 8 mph 1010.5mb 74f 76f
3:48 7 10 mph 1010.4mb 74f 76f
3:42 10 13 mph 1010.3mb 74f 76f
3:36 9 14 mph 1010.3mb 74f 76f
3:30 10 13 mph 1010.3mb 74f 76f
3:24 10 11 mph 1010.2mb 74f 76f
3:18 6 7 mph 1010.2mb 74f 77f
3:12 6 10 mph 1010.2mb 74f 77f
3:06 6 9 mph 1010.2mb 74f 77f
3:00 6 10 mph 1010.1mb 73f 77f
2:54 10 11 mph 1010mb 73f 76f
2:48 9 14 mph 1010mb 73f 76f
2:42 11 14 mph 1009.9mb 73f 76f
2:36 9 11 mph 1009.8mb 73f 76f
2:30 2 6 mph 1009.8mb 73f 78f
2:24 2 5 mph 1009.8mb 73f 76f
2:18 5 7 mph 1009.7mb 73f 75f
2:12 9 13 mph 1009.7mb 73f 75f
2:06 10 11 mph 1009.5mb 72f 75f
2:00 8 9 mph 1009.5mb 72f 73f
1:54 9 11 mph 1009.5mb 72f 74f
1:48 7 9 mph 1009.5mb 72f 74f
1:42 7 10 mph 1009.5mb 72f 73f
1:36 8 10 mph 1009.5mb 72f 73f
1:30 9 11 mph 1009.5mb 71f 72f
1:24 9 10 mph 1009.4mb 71f 72f
1:18 9 10 mph 1009.4mb 71f 72f
1:12 8 9 mph 1009.4mb 71f 72f
1:06 8 10 mph 1009.3mb 71f 72f
1:00 9 10 mph 1009.4mb 71f 72f
12:54 10 11 mph 1009.4mb 71f 72f
12:48 9 11 mph 1009.4mb 72f 71f
12:42 11
mph
1009.3mb 72f 71f
12:36 11 14 mph 1009.3mb 72f 71f
12:30 7 9 mph 1009.3mb 72f 71f
12:24 8 9 mph 1009.3mb 72f 71f
12:18 6 8 mph 1009.3mb 72f 72f
12:12 7 8 mph 1009.2mb 72f 72f
12:06 6 7 mph 1009.2mb 72f 72f
12:00 5 6 mph 1009.1mb 72f 72f
11:54 5 6 mph 1009.1mb 72f 71f
11:48 6 7 mph 1009.1mb 72f 71f
11:42 6
mph
1009.1mb 72f 70f
11:36 5 6 mph 1009mb 72f 71f
11:30 3 6 mph 1009mb 72f 71f
11:24 5 6 mph 1009mb 72f 71f
11:18 6 7 mph 1009.1mb 72f 70f
11:12 6 7 mph 1009.2mb 72f 70f
11:06 6 7 mph 1009.2mb 72f 70f
11:00 6 8 mph 1009.3mb 72f 70f
10:54 6 7 mph 1009.2mb 72f 70f
10:48 7 9 mph 1009.1mb 72f 70f
10:42 3 5 mph 1009.1mb 72f 71f
10:36 1 3 mph 1009.1mb 72f 71f
10:30 3 6 mph 1009.1mb 72f 70f
10:24 5 9 mph 1009.1mb 72f 71f
10:18 1 6 mph 1008.9mb 72f 72f
10:12 3 11 mph 1008.8mb 72f 71f
10:06 2 5 mph 1008.8mb 72f 71f
10:00  -  5 mph 1008.9mb 72f 71f
9:54 3 9 mph 1008.9mb 72f 70f
9:48 3 6 mph 1008.9mb 72f 70f
9:42 3
mph
1008.8mb 72f 70f
9:36 3 6 mph 1008.8mb 72f 70f
9:30 3 9 mph 1008.8mb 72f 70f
9:24 7 11 mph 1008.7mb 72f 69f
9:18 8 10 mph 1008.6mb 72f 69f
9:12 8 11 mph 1008.6mb 72f 68f
9:06 5 8 mph 1008.6mb 72f 69f
9:00 6 9 mph 1008.5mb 72f 68f
8:54 7 10 mph 1008.5mb 72f 68f
8:48 6 11 mph 1008.5mb 72f 68f
8:42 6 11 mph 1008.5mb 72f 68f
8:36 5 11 mph 1008.5mb 72f 67f
8:30 6 10 mph 1008.5mb 72f 67f
8:24 7 10 mph 1008.4mb 72f 67f
8:18 9 10 mph 1008.3mb 72f 67f
8:12 6 9 mph 1008.3mb 72f 68f
8:06 7 9 mph 1008.2mb 72f 67f
8:00 5 10 mph 1008.2mb 72f 67f
7:54 8 10 mph 1008.1mb 72f 66f
7:48 6 8 mph 1008.1mb 72f 67f
7:42 8 10 mph 1008.1mb 72f 67f
7:36 6 11 mph 1008mb 72f 67f
7:30 7 9 mph 1008mb 72f 67f
7:24 5 7 mph 1007.9mb 72f 67f
7:18 6 9 mph 1007.9mb 72f 66f
7:12 5 6 mph 1007.8mb 72f 66f
7:06 6 9 mph 1007.7mb 72f 66f
7:00 7 10 mph 1007.5mb 72f 66f
6:54 5 10 mph 1007.3mb 72f 66f
6:48 6 8 mph 1007.1mb 72f 65f
6:42 7 9 mph 1007mb 72f 65f
6:36 5 7 mph 1006.8mb 72f 65f
6:30 5 8 mph 1006.6mb 72f 65f
6:24 6 8 mph 1006.6mb 72f 64f
6:18 6 10 mph 1006.5mb 72f 64f
6:12 7 9 mph 1006.6mb 72f 64f
6:06 6 9 mph 1006.6mb 72f 64f
6:00 5 8 mph 1006.6mb 72f 64f
5:54 7 9 mph 1006.5mb 72f 64f
5:48 5 8 mph 1006.6mb 72f 64f
5:42 6 10 mph 1006.5mb 72f 64f
5:36 7 9 mph 1006.4mb 72f 64f
5:30 7 9 mph 1006.4mb 72f 64f
5:24 8 11 mph 1006.3mb 72f 64f
5:18 9 11 mph 1006.3mb 72f 64f
5:12 8 11 mph 1006.1mb 72f 64f
5:06 8 14 mph 1006mb 72f 64f
5:00 10 13 mph 1005.7mb 72f 64f
4:54 10 14 mph 1005.6mb 72f 64f
4:48 10 14 mph 1005.4mb 72f 65f
4:42 9 14 mph 1005.4mb 72f 65f
4:36 10 14 mph 1005.4mb 72f 65f
4:30 9 14 mph 1005.3mb 72f 65f
4:24 10 13 mph 1005.1mb 72f 65f
4:18 10 14 mph 1005.1mb 72f 65f
4:12 11 14 mph 1005mb 72f 65f
4:06 9 13 mph 1005mb 72f 66f
4:00 8 11 mph 1005mb 72f 66f
3:54 8 10 mph 1005mb 72f 66f
3:48 9 13 mph 1004.9mb 72f 66f
3:42 11 15 mph 1004.9mb 73f 66f
3:36 10 13 mph 1004.7mb 72f 66f
3:30 8 9 mph 1004.6mb 72f 66f
3:24 9 14 mph 1004.4mb 73f 66f
3:18 9 13 mph 1004.4mb 73f 67f
3:12 9 11 mph 1004.3mb 73f 67f
3:06 10 11 mph 1004.2mb 73f 67f
3:00 8 11 mph 1004.2mb 72f 67f
2:54 8 9 mph 1004.1mb 72f 67f
2:48 6 8 mph 1004.1mb 72f 67f
2:42 6 10 mph 1003.9mb 72f 67f
2:36 7 11 mph 1003.8mb 72f 67f
2:30 7 11 mph 1003.8mb 72f 68f
2:24 7 10 mph 1003.7mb 72f 68f
2:18 7 11 mph 1003.6mb 72f 68f
2:12 9 13 mph 1003.5mb 72f 68f
2:06 7 10 mph 1003.5mb 72f 68f
2:00 7 10 mph 1003.4mb 72f 68f
1:54 8 11 mph 1003.3mb 72f 69f
1:48 8 13 mph 1003.3mb 72f 69f
1:42 7 10 mph 1003.2mb 72f 69f
1:36 9 11 mph 1003mb 72f 69f
1:30 8 15 mph 1002.9mb 72f 69f
1:24 9 14 mph 1002.7mb 72f 69f
1:18 13 16 mph 1002.6mb 71f 69f
1:12 13 16 mph 1002.4mb 71f 69f
1:06 11 14 mph 1002.3mb 71f 69f
1:00 14 16 mph 1002.1mb 71f 69f
12:54 11 14 mph 1002mb 71f 70f
12:48 13 15 mph 1001.8mb 71f 70f
12:42 10 15 mph 1001.8mb 71f 70f
12:36 11 14 mph 1001.6mb 71f 70f
12:30 11 15 mph 1001.6mb 71f 70f
12:24 11 14 mph 1001.5mb 71f 70f
12:18 13 15 mph 1001.5mb 71f 70f
12:12 11 14 mph 1001.4mb 71f 70f
12:06 10 14 mph 1001.4mb 71f 71f
12:00 13 15 mph 1001.5mb 71f 71f
Seg 07/28 11:54 13 15 mph 1001.5mb 71f 71f
11:48 11 15 mph 1001.5mb 71f 71f
11:42 13 17 mph 1001.6mb 71f 71f
11:36 13 16 mph 1001.5mb 72f 72f
11:30 14 16 mph 1001.4mb 72f 72f
11:24 14 17 mph 1001.3mb 72f 72f
11:18 15 17 mph 1001.3mb 72f 73f
11:12 15 17 mph 1001.3mb 72f 73f
11:06 16 18 mph 1001.3mb 72f 73f
11:00 16 18 mph 1001.3mb 72f 73f
10:54 14 17 mph 1001.3mb 72f 73f
10:48 14 15 mph 1001.2mb 72f 73f
10:42 11 14 mph 1001.2mb 72f 72f
10:36 10 13 mph 1001.2mb 72f 72f
10:30 10 11 mph 1001.1mb 72f 73f
10:24 11 13 mph 1001.1mb 72f 73f
10:18 10 13 mph 1001.1mb 72f 73f
10:12 10 13 mph 1001.1mb 72f 73f
10:06 10 11 mph 1001mb 72f 73f
10:00 9 11 mph 1001mb 73f 73f
9:54 10 14 mph 1001mb 73f 73f
9:48 10 13 mph 1001mb 73f 73f
9:42 10 13 mph 1000.8mb 73f 73f
9:36 10 13 mph 1000.6mb 73f 73f
9:30 10 13 mph 1000.6mb 73f 73f
9:24 11 14 mph 1000.4mb 73f 73f
9:18 11 14 mph 1000.4mb 73f 73f
9:12 14 16 mph 1000.3mb 73f 73f
9:06 14 16 mph 1000.2mb 73f 73f
9:00 15 17 mph 1000.2mb 73f 73f
8:54 15 17 mph 1000.1mb 73f 73f
8:48 14 16 mph 1000mb 73f 73f
8:42 14 16 mph 1000mb 74f 73f
8:36 13 16 mph 999.9mb 74f 73f
8:30 14 16 mph 999.9mb 74f 73f
8:24 15 16 mph 999.9mb 74f 73f
8:18 15 17 mph 999.9mb 74f 73f
8:12 16 17 mph 999.8mb 74f 73f
8:06 16 17 mph 999.8mb 74f 74f
8:00 15 18 mph 999.6mb 74f 74f
7:54 16 18 mph 999.5mb 74f 74f
7:48 17 20 mph 999.5mb 74f 74f
7:42 17 20 mph 999.4mb 74f 74f
7:36 18 22 mph 999.5mb 74f 75f
7:30 17 22 mph 999.5mb 74f 75f
7:24 17 21 mph 999.5mb 74f 75f
7:18 17 22 mph 999.6mb 74f 75f
7:12 20 22 mph 999.5mb 74f 75f
7:06 21 25 mph 999.4mb 74f 76f
7:00 17 23 mph 999.4mb 74f 76f
6:54 21 25 mph 999.3mb 74f 76f
6:48 21 25 mph 999.4mb 74f 76f
6:42 20 23 mph 999.4mb 74f 76f
6:36 18 25 mph 999.2mb 74f 77f
6:30 21 26 mph 999mb 74f 77f
6:24 21 24 mph 999mb 74f 77f
6:18 21 24 mph 998.9mb 74f 77f
6:12 20 24 mph 998.9mb 74f 77f
6:06 17 22 mph 998.9mb 74f 77f
6:00 18 21 mph 998.8mb 74f 77f
5:54 20 26 mph 998.7mb 74f 77f
5:48 16 24 mph 998.7mb 74f 77f
5:42 20 26 mph 998.6mb 74f 77f
5:36 17 22 mph 998.5mb 74f 77f
5:30 18 24 mph 998.5mb 74f 77f
5:24 21 28 mph 998.5mb 74f 77f
5:18 21 23 mph 998.3mb 74f 77f
5:12 21 23 mph 998.3mb 74f 77f
5:06 18 22 mph 998.3mb 74f 77f
5:00 18 22 mph 998.3mb 74f 78f
4:54 21 25 mph 998.2mb 74f 78f
4:48 17 22 mph 998.2mb 74f 78f
4:42 20 21 mph 998.2mb 74f 78f
4:36 18 23 mph 998.3mb 74f 78f
4:30 18 23 mph 998.3mb 73f 78f
4:24 21 26 mph 998.2mb 73f 78f
4:18 20 22 mph 998.3mb 73f 78f
4:12 17 24 mph 998.3mb 73f 78f
4:06 16 22 mph 998.3mb 73f 78f
4:00 18 21 mph 998.3mb 73f 79f
3:54 14 18 mph 998.4mb 73f 78f
3:48 17 20 mph 998.4mb 73f 79f
3:42 14 18 mph 998.5mb 73f 79f
3:36 15 20 mph 998.6mb 73f 79f
3:30 15 18 mph 998.6mb 73f 78f
3:24 16 21 mph 998.7mb 73f 78f
3:18 16 18 mph 998.7mb 73f 78f
3:12 13 15 mph 998.9mb 73f 78f
3:06 14 16 mph 998.9mb 73f 77f
3:00 13 16 mph 998.9mb 73f 77f
2:54 9 13 mph 999mb 73f 77f
2:48 9 14 mph 999mb 73f 76f
2:42 13 15 mph 999mb 73f 74f
2:36 11 14 mph 999.2mb 73f 73f
2:30 13 15 mph 999.1mb 73f 73f
2:24 14 16 mph 999.1mb 73f 73f
2:18 15 17 mph 999.2mb 73f 73f
2:12 14 15 mph 999.2mb 73f 73f
2:06 14 15 mph 999.2mb 73f 73f
2:00 14 16 mph 999.3mb 73f 73f
1:54 15 17 mph 999.4mb 73f 73f
1:48 16 18 mph 999.5mb 72f 73f
1:42 15 17 mph 999.5mb 72f 73f
1:36 16 17 mph 999.4mb 72f 73f
1:30 15 16 mph 999.5mb 72f 73f
1:24 15 17 mph 999.6mb 72f 73f
1:18 15 17 mph 999.8mb 72f 73f
1:12 14 16 mph 999.8mb 72f 73f
1:06 15 18 mph 999.9mb 72f 73f
1:00 15 18 mph 1000mb 72f 73f
12:54 14 18 mph 1000.1mb 72f 73f
12:48 16 18 mph 1000.2mb 72f 73f
12:42 15 17 mph 1000.3mb 72f 74f
12:36 11 17 mph 1000.5mb 72f 75f
12:30 16 20 mph 1000.5mb 72f 75f
12:24 13 17 mph 1000.6mb 72f 76f
12:18 17 22 mph 1000.6mb 72f 75f
12:12 17 21 mph 1000.7mb 72f 74f
12:06 16 20 mph 1000.7mb 72f 73f
12:00 17 21 mph 1000.8mb 72f 73f
11:54 15 18 mph 1000.9mb 72f 73f
11:48 14 17 mph 1000.9mb 72f 73f
11:42 15 18 mph 1001mb 72f 74f
11:36 17 20 mph 1000.9mb 72f 73f
11:30 16 18 mph 1000.9mb 72f 76f
11:24 11 17 mph 1001mb 72f 76f
11:18 13 16 mph 1001mb 72f 76f
11:12 13 17 mph 1001.1mb 72f 76f
11:06 16 18 mph 1001.1mb 72f 75f
11:00 17 21 mph 1001.2mb 72f 75f
10:54 17 20 mph 1001.1mb 72f 75f
10:48 21 23 mph 1001.1mb 72f 75f
10:42 20 24 mph 1001.2mb 72f 75f
10:36 21 26 mph 1001.1mb 72f 75f
10:30 24 29 mph 1001.1mb 72f 75f
10:24 25 30 mph 1001.1mb 72f 75f
10:18 15 20 mph 1001.1mb 72f 76f
10:12 18 21 mph 1001.1mb 72f 75f
10:06 17 22 mph 1001.1mb 72f 75f
10:00 16 20 mph 1001.1mb 72f 75f
9:54 16 20 mph 1001mb 72f 75f
9:48 18 22 mph 1000.9mb 72f 75f
9:42 14 18 mph 1000.9mb 72f 74f
9:36 16 18 mph 1001mb 72f 74f
9:30 17 22 mph 1001mb 72f 74f
9:24 16 22 mph 1001mb 72f 73f
9:18 20 24 mph 1001.2mb 72f 73f
9:12 16 22 mph 1001.2mb 72f 73f
9:06 21 24 mph 1001.2mb 72f 73f
9:00 21 24 mph 1001.3mb 72f 73f
8:54 22 24 mph 1001.2mb 72f 73f
8:48 21 25 mph 1001.1mb 72f 73f
8:42 21 25 mph 1001.1mb 72f 73f
8:36 21 23 mph 1001.1mb 72f 73f
8:30 21 23 mph 1001mb 72f 73f
8:24 22 25 mph 1000.9mb 72f 73f
8:18 21 25 mph 1001mb 72f 73f
8:12 23 28 mph 1000.9mb 72f 73f
8:06 24 28 mph 1000.9mb 72f 73f
8:00 26 31 mph 1000.8mb 72f 73f
7:54 25 32 mph 1001mb 72f 73f
7:48 24 28 mph 1001.1mb 72f 73f
7:42 18 24 mph 1001.2mb 72f 73f
7:36 22 25 mph 1001.4mb 72f 73f
7:30 21 25 mph 1001.5mb 72f 73f
7:24 17 21 mph 1001.6mb 72f 72f
7:18 15 17 mph 1001.9mb 72f 73f
7:12 16 20 mph 1001.9mb 72f 73f
7:06 14 16 mph 1001.8mb 72f 73f
7:00 15 16 mph 1001.7mb 72f 73f
6:54 11 14 mph 1001.6mb 72f 72f
6:48 13 14 mph 1002.1mb 72f 72f
6:42 13 17 mph 1002mb 72f 72f
6:36 16 18 mph 1002.2mb 72f 72f
6:30 16 22 mph 1002.2mb 72f 72f
6:24 18 22 mph 1002.5mb 72f 72f
6:18 16 18 mph 1002.6mb 72f 73f
6:12 13 15 mph 1002.6mb 72f 73f
6:06 13 15 mph 1002.6mb 72f 73f
6:00 14 16 mph 1002.6mb 72f 73f
5:54 11 14 mph 1002.7mb 72f 72f
5:48 13 15 mph 1002.6mb 72f 72f
5:42 13 14 mph 1002.8mb 72f 72f
5:36 10 11 mph 1002.8mb 72f 72f
5:30 10 14 mph 1002.8mb 72f 72f
5:24 14 16 mph 1002.8mb 72f 72f
5:18 10 14 mph 1002.6mb 72f 72f
5:12 11 14 mph 1002.7mb 72f 72f
5:06 10 11 mph 1002.7mb 72f 72f
5:00 8 11 mph 1002.9mb 72f 72f
4:54 9 11 mph 1003.1mb 72f 72f
4:48 9 11 mph 1003.2mb 72f 72f
4:42 11 14 mph 1003.2mb 72f 72f
4:36 11 13 mph 1003.3mb 72f 72f
4:30 10 11 mph 1003.3mb 72f 72f
4:24 10 11 mph 1003.3mb 72f 72f
4:18 9 13 mph 1003.4mb 72f 72f
4:12 11 13 mph 1003.3mb 72f 71f
4:06 10 13 mph 1003.3mb 72f 71f
4:00 10 13 mph 1003.2mb 72f 71f
3:54 11 13 mph 1003.3mb 72f 72f
3:48 10 11 mph 1003.4mb 72f 72f
3:42 10 11 mph 1003.4mb 72f 72f
3:36 8 9 mph 1003.4mb 72f 72f
3:30 8 14 mph 1003.5mb 72f 72f
3:24 13 14 mph 1003.6mb 72f 72f
3:18 9 14 mph 1003.5mb 72f 72f
3:12 11 14 mph 1003.5mb 72f 72f
3:06 10 13 mph 1003.6mb 72f 72f
3:00 10 11 mph 1003.6mb 72f 72f
2:54 9 10 mph 1003.7mb 72f 72f
2:48 8 13 mph 1003.7mb 72f 72f
2:42 9 10 mph 1003.8mb 72f 72f
2:36 9
mph
1003.9mb 72f 72f
2:30 9 10 mph 1004mb 72f 72f
2:24 9 10 mph 1003.9mb 72f 72f
2:18 9 11 mph 1004mb 72f 72f
2:12 10 11 mph 1004.1mb 72f 72f
2:06 9 15 mph 1004.1mb 72f 72f
2:00 11 14 mph 1004.3mb 72f 72f
1:54 10 13 mph 1004.4mb 72f 72f
1:48 10 13 mph 1004.4mb 72f 71f
1:42 9 14 mph 1004.6mb 72f 71f
1:36 14 17 mph 1004.6mb 72f 72f
1:30 11 13 mph 1004.9mb 72f 71f
1:24 11 15 mph 1004.9mb 72f 71f
1:18 10 11 mph 1005mb 72f 71f
1:12 9 10 mph 1005mb 71f 71f
1:06 9 10 mph 1005mb 71f 71f
1:00 8 13 mph 1005mb 71f 71f
12:54 11 14 mph 1005.3mb 71f 71f
12:48 13 15 mph 1005.4mb 71f 71f
12:42 14 15 mph 1005.3mb 71f 71f
12:36 14 16 mph 1005.3mb 71f 71f
12:30 13 14 mph 1005.3mb 71f 70f
12:24 13 16 mph 1005.4mb 71f 70f
12:18 15 20 mph 1005.5mb 71f 71f
12:12 17 18 mph 1005.6mb 71f 70f
12:06 10 13 mph 1005.6mb 71f 70f
12:00 9 13 mph 1005.7mb 71f 70f
Dom 07/27 11:54 13 14 mph 1005.8mb 71f 70f
11:48 9 10 mph 1005.7mb 71f 70f
11:42 9 10 mph 1005.6mb 71f 71f
11:36 6 7 mph 1005.5mb 71f 71f
11:30 7 8 mph 1005.6mb 71f 71f
11:24 6
mph
1005.7mb 71f 71f
11:18 5 6 mph 1005.7mb 71f 71f
11:12 5
mph
1005.6mb 71f 71f
11:06 3 5 mph 1005.5mb 71f 71f
11:00 3 8 mph 1005.6mb 72f 72f
10:54 7 9 mph 1005.7mb 72f 72f
10:48 6
mph
1005.7mb 72f 72f
10:42 6
mph
1005.9mb 72f 72f
10:36 5 6 mph 1005.8mb 72f 72f
10:30 3 7 mph 1005.8mb 72f 72f
10:24 5 6 mph 1005.8mb 72f 72f
10:18 6
mph
1005.7mb 72f 72f
10:12 5 7 mph 1005.8mb 72f 72f
10:06 7 9 mph 1005.8mb 72f 72f
10:00 9 11 mph 1005.6mb 72f 72f
9:54 9 11 mph 1005.3mb 72f 72f
9:48 9 11 mph 1005.2mb 72f 72f
9:42 11 14 mph 1005mb 72f 72f
9:36 11 15 mph 1005mb 72f 72f
9:30 13 15 mph 1004.7mb 72f 72f
9:24 14 15 mph 1004.9mb 73f 72f
9:18 13 15 mph 1005.2mb 73f 72f
9:12 9 13 mph 1005.4mb 73f 72f
9:06 10 13 mph 1005.4mb 73f 72f
9:00 13 16 mph 1005.4mb 73f 72f
8:54 13 15 mph 1005.5mb 73f 72f
8:48 11 15 mph 1005.7mb 73f 72f
8:42 14 15 mph 1005.7mb 73f 72f
8:36 14 15 mph 1005.7mb 73f 72f
8:30 13 14 mph 1005.7mb 73f 72f
8:24 13 14 mph 1005.8mb 73f 72f
8:18 13 14 mph 1005.9mb 73f 72f
8:12 11 13 mph 1005.7mb 73f 72f
8:06 9 10 mph 1005.9mb 73f 72f
8:00 9 10 mph 1006mb 73f 73f
7:54 8 9 mph 1005.9mb 73f 73f
7:48 7 9 mph 1005.7mb 73f 72f
7:42 7 8 mph 1005.6mb 73f 73f
7:36 6 8 mph 1005.6mb 73f 73f
7:30 7 9 mph 1005.8mb 73f 73f
7:24 8 13 mph 1005.7mb 73f 73f
7:18 9 11 mph 1005.4mb 73f 73f
7:12 9 10 mph 1005.4mb 73f 73f
7:06 10 14 mph 1005.6mb 73f 73f
7:00 11 14 mph 1005.5mb 73f 73f
6:54 14 17 mph 1005.4mb 73f 73f
6:48 14 17 mph 1005.5mb 73f 73f
6:42 14 18 mph 1005.6mb 73f 73f
6:36 16 21 mph 1005.7mb 73f 74f
6:30 16 18 mph 1005.5mb 73f 74f
6:24 15 17 mph 1005.7mb 73f 74f
6:18 13 15 mph 1005.8mb 73f 73f
6:12 13 16 mph 1005.7mb 73f 73f
6:06 13 17 mph 1005.7mb 73f 73f
6:00 14 17 mph 1005.7mb 73f 73f
5:54 15 18 mph 1005.6mb 73f 73f
5:48 16 18 mph 1005.7mb 73f 73f
5:42 16 20 mph 1005.7mb 73f 73f
5:36 16 18 mph 1005.6mb 73f 73f
5:30 15 17 mph 1005.8mb 73f 73f
5:24 14 18 mph 1005.8mb 73f 73f
5:18 16 18 mph 1005.9mb 73f 73f
5:12 16 20 mph 1006mb 73f 73f
5:06 15 20 mph 1006mb 73f 73f
5:00 17 21 mph 1006.1mb 72f 73f
4:54 17 22 mph 1006.2mb 72f 73f
4:48 18 22 mph 1006.3mb 72f 73f
4:42 17 21 mph 1006.2mb 72f 73f
4:36 15 21 mph 1006.3mb 72f 73f
4:30 18 22 mph 1006.2mb 72f 73f
4:24 14 17 mph 1006.4mb 72f 72f
4:18 16 21 mph 1006.4mb 72f 72f
4:12 15 20 mph 1006.4mb 72f 72f
4:06 16 18 mph 1006.5mb 73f 72f
4:00 16 21 mph 1006.6mb 73f 73f
3:54 18 20 mph 1006.6mb 73f 73f
3:48 14 17 mph 1006.7mb 72f 72f
3:42 15 18 mph 1006.7mb 72f 72f
3:36 15 18 mph 1006.8mb 72f 72f
3:30 15 18 mph 1006.8mb 72f 71f
3:24 16 21 mph 1006.8mb 72f 71f
3:18 18 21 mph 1006.8mb 72f 72f
3:12 17 22 mph 1006.9mb 72f 71f
3:06 20 22 mph 1006.9mb 72f 71f
3:00 20 23 mph 1006.9mb 72f 71f
2:54 18 22 mph 1006.8mb 72f 71f
2:48 21 23 mph 1006.9mb 72f 71f
2:42 20 22 mph 1006.9mb 72f 71f
2:36 17 21 mph 1007.1mb 72f 71f
2:30 17 20 mph 1007.4mb 72f 71f
2:24 15 18 mph 1007.6mb 72f 72f
2:18 16 18 mph 1007.5mb 72f 72f
2:12 16 20 mph 1007.7mb 72f 72f
2:06 18 22 mph 1007.7mb 72f 72f
2:00 18 24 mph 1007.7mb 72f 72f
1:54 20 22 mph 1007.6mb 72f 72f
1:48 18 22 mph 1007.8mb 72f 72f
1:42 16 21 mph 1008mb 72f 72f
1:36 16 20 mph 1008mb 72f 72f
1:30 16 20 mph 1008mb 72f 72f
1:24 18 22 mph 1007.9mb 72f 71f
1:18 15 18 mph 1008.1mb 72f 71f
1:12 14 16 mph 1008.3mb 72f 71f
1:06 15 20 mph 1008.2mb 72f 71f
1:00 15 18 mph 1008.4mb 72f 71f
12:54 16 22 mph 1008.3mb 72f 71f
12:48 16 20 mph 1008.2mb 72f 71f
12:42 17 22 mph 1008.1mb 72f 71f
12:36 18 24 mph 1008.2mb 72f 71f
12:30 21 25 mph 1008.3mb 72f 71f
12:24 18 22 mph 1008.5mb 72f 71f
12:18 18 21 mph 1008.6mb 71f 72f
12:12 17 20 mph 1008.8mb 72f 72f
12:06 17 22 mph 1008.8mb 72f 72f
12:00 15 18 mph 1008.9mb 72f 72f
11:54 15 21 mph 1009mb 72f 72f
11:48 18 21 mph 1009.1mb 72f 72f
11:42 17 21 mph 1009.1mb 72f 72f
11:36 16 20 mph 1009.1mb 72f 72f
11:30 17 21 mph 1009.2mb 71f 72f
11:24 17 22 mph 1009.3mb 71f 71f
11:18 20 24 mph 1009.5mb 71f 72f
11:12 17 21 mph 1009.4mb 71f 72f
11:06 20 23 mph 1009.4mb 71f 72f
11:00 20 23 mph 1009.4mb 71f 72f
10:54 21 23 mph 1009.3mb 71f 73f
10:48 20 23 mph 1009.4mb 71f 73f
10:42 20 23 mph 1009.5mb 71f 73f
10:36 20 22 mph 1009.5mb 71f 72f
10:30 20 23 mph 1009.5mb 72f 73f
10:24 20 22 mph 1009.4mb 72f 72f
10:18 17 20 mph 1009.4mb 72f 72f
10:12 18 21 mph 1009.5mb 72f 73f
10:06 16 18 mph 1009.5mb 73f 74f
10:00 16 18 mph 1009.4mb 73f 73f
9:54 15 18 mph 1009.5mb 73f 73f
9:48 14 18 mph 1009.6mb 73f 73f
9:42 14 24 mph 1009.7mb 73f 73f
9:36 20 24 mph 1009.6mb 73f 74f
9:30 15 22 mph 1009.6mb 73f 73f
9:24 17 21 mph 1009.8mb 73f 73f
9:18 18 23 mph 1009.8mb 73f 74f
9:12 18 22 mph 1009.9mb 73f 74f
9:06 16 20 mph 1009.9mb 73f 74f
9:00 18 21 mph 1010mb 73f 73f
8:54 16 18 mph 1010.1mb 73f 74f
8:48 17 23 mph 1010mb 73f 73f
8:42 15 17 mph 1010mb 73f 73f
8:36 15 20 mph 1010mb 73f 73f
8:30 18 22 mph 1010mb 73f 74f
8:24 18 22 mph 1010mb 73f 73f
8:18 17 21 mph 1010mb 73f 73f
8:12 18 22 mph 1010.1mb 73f 73f
8:06 15 18 mph 1010.1mb 73f 73f
8:00 15 18 mph 1010.2mb 73f 73f
7:54 15 17 mph 1010.3mb 73f 73f
7:48 14 16 mph 1010.3mb 73f 73f
7:42 13 15 mph 1010.3mb 73f 73f
7:36 11 15 mph 1010.4mb 73f 73f
7:30 10 14 mph 1010.4mb 73f 73f
7:24 13 15 mph 1010.3mb 73f 72f
7:18 14 15 mph 1010.5mb 73f 72f
7:12 13 14 mph 1010.5mb 73f 72f
7:06 11 14 mph 1010.5mb 73f 72f
7:00 9 13 mph 1010.5mb 73f 71f
6:54 10 13 mph 1010.5mb 73f 71f
6:48 10 11 mph 1010.6mb 73f 71f
6:42 8 9 mph 1010.6mb 73f 71f
6:36 8 10 mph 1010.7mb 73f 71f
6:30 9 10 mph 1010.8mb 73f 71f
6:24 9 10 mph 1010.9mb 73f 70f
6:18 8 10 mph 1010.8mb 73f 70f
6:12 8 9 mph 1010.8mb 73f 70f
6:06 8 9 mph 1010.8mb 73f 70f
6:00 8 9 mph 1010.7mb 73f 70f
5:54 9 11 mph 1010.8mb 73f 70f
5:48 9 11 mph 1010.8mb 73f 70f
5:42 9 11 mph 1010.7mb 73f 70f
5:36 9 10 mph 1010.8mb 73f 70f